Location: Gleizolles
(44.4833°N, 6.7667°E)
Time: 15:07:04
(UTC+00:00)

Vanguard 1 - Pass Details

Date: 28 June 2024
Orbit: 650 x 3826 km, 34.3° (Epoch: 22 July)

Event Time Altitude Azimuth Distance (km) Brightness Sun altitude
Rises 10:01:59 0° 241° (WSW) 6,233 14.1 61.3°
Reaches altitude 10° 10:07:09 10° 234° (SW) 4,670 13.6 62.0°
Maximum altitude 10:17:20 36° 174° (S) 2,055 12.8 63.3°
Drops below altitude 10° 10:23:25 10° 109° (ESE) 2,775 12.9 64.0°
Sets 10:25:42 0° 100° (E) 3,487 13.2 64.3°
